This is the latest recevied weather packets stored in our database for station/object DM2KB-13. If no packets are shown the sender has not sent any weather packets the latest 10 day(s).
| Time | Temp. | Humidity | Pressure | Rain* | Wind** | Luminosity | Snow |
|---|---|---|---|---|---|---|---|
| 1778058074 | 9.44° C | 99% | 1005.8 hPa | 0.76 mm | - | 132 W/m² | - |
| 1778057774 | 9.44° C | 99% | 1005.7 hPa | 0.76 mm | - | 127 W/m² | - |
| 1778057474 | 9.44° C | 99% | 1005.7 hPa | 0.51 mm | - | 137 W/m² | - |
| 1778057173 | 8.89° C | 99% | 1005.7 hPa | 0.76 mm | - | 148 W/m² | - |
| 1778056873 | 8.89° C | 99% | 1005.6 hPa | 0.76 mm | - | 135 W/m² | - |
| 1778056573 | 9.44° C | 99% | 1005.6 hPa | 0.51 mm | - | 114 W/m² | - |
| 1778056273 | 9.44° C | 99% | 1005.6 hPa | 0.76 mm | - | 88 W/m² | - |
| 1778055972 | 9.44° C | 99% | 1005.5 hPa | 0.76 mm | - | 102 W/m² | - |
| 1778055672 | 9.44° C | 99% | 1005.5 hPa | 0.76 mm | - | 98 W/m² | - |
| 1778055372 | 9.44° C | 99% | 1005.5 hPa | 0.76 mm | - | 70 W/m² | - |
| 1778055071 | 9.44° C | 99% | 1005.5 hPa | 1.02 mm | - | 72 W/m² | - |
| 1778054771 | 9.44° C | 99% | 1005.5 hPa | 1.02 mm | - | 84 W/m² | - |
| 1778054471 | 9.44° C | 99% | 1005.4 hPa | 1.27 mm | - | 113 W/m² | - |
| 1778054171 | 9.44° C | 99% | 1005.5 hPa | 1.52 mm | - | 139 W/m² | - |
| 1778053870 | 9.44° C | 99% | 1005.5 hPa | 1.52 mm | - | 114 W/m² | - |
| 1778053570 | 9.44° C | 99% | 1005.4 hPa | 1.52 mm | - | 120 W/m² | - |
| 1778053270 | 9.44° C | 99% | 1005.3 hPa | 1.78 mm | - | 125 W/m² | - |
| 1778052969 | 9.44° C | 99% | 1005.4 hPa | 1.78 mm | - | 127 W/m² | - |
| 1778052669 | 9.44° C | 99% | 1005.3 hPa | 1.52 mm | - | 102 W/m² | - |
| 1778052369 | 9.44° C | 99% | 1005.3 hPa | 1.78 mm | - | 79 W/m² | - |
| 1778052068 | 9.44° C | 99% | 1005.3 hPa | 2.03 mm | - | 67 W/m² | - |
| 1778051768 | 9.44° C | 99% | 1005.2 hPa | 1.78 mm | - | 105 W/m² | - |
| 1778051468 | 9.44° C | 99% | 1005.2 hPa | 1.78 mm | - | 72 W/m² | - |
| 1778051168 | 9.44° C | 99% | 1005.2 hPa | 1.78 mm | - | 70 W/m² | - |
| 1778050867 | 9.44° C | 99% | 1005.2 hPa | 1.78 mm | - | 53 W/m² | - |
* Rain latest hour (hover to see other rain measurements)
** Current wind speed in m/s (hover to see current wind gust speed)